Date String (YYYY-MM-DD hh:mm:ss) UTC,Instrument flags,absolute air pressure of the measurement (hPa),sample flow rate (lpm),inlet stack bypass flow (lpm),air temperature of the measurement (°C),ambient temperature measured by the external sensor (°C),aerosol sample conditioner tube jacket temperature (°C),OPC LED temperature (°C),internal box temperature (°C),relative humidity of the measurement (%),span deviation,mass concentration of particles derived from Lorenz-Mie calculation of OPC scattering (μg/m³),mass concentration of particles derived from Lorenz-Mie calculation of OPC scattering (μg/m³),mass concentration of particles derived from Lorenz-Mie calculation of OPC scattering (μg/m³)
DateTimeUTC,F1_M11,P_M11,Q1_M11,Q2_M11,T1_M11,T2_M11,T3_M11,T4_M11,T5_M11,U1_M11,ZSPAN_M11,X0_M11,X2_M11,X1_M11
2023-08-24 16:00:00,SystemResetWarning,0833.9,5.00,000.00,028.2,026.3,000.0,036.5,029.7,31.2,0001.3,0016.81,0008.53,0007.47
2023-08-24 16:01:00,SystemResetWarning,0833.9,4.99,000.00,028.2,025.2,000.0,036.4,029.4,32.8,0001.2,0016.80,0008.50,0007.46
2023-08-24 16:02:00,SystemResetWarning,0833.9,5.00,000.00,028.1,024.3,000.0,036.3,029.2,34.3,0001.1,0016.27,0008.61,0007.48
2023-08-24 16:03:00,SystemResetWarning,0833.9,5.01,000.00,028.0,024.4,000.0,036.3,029.2,34.5,0001.2,0015.73,0008.62,0007.50
2023-08-24 16:04:00,SystemResetWarning,0833.9,4.98,000.00,028.0,024.7,000.0,036.3,029.2,35.2,0001.5,0015.81,0008.64,0007.48
2023-08-24 16:05:00,SystemResetWarning,0833.9,5.03,000.00,028.1,025.1,000.0,036.3,029.4,34.4,0001.5,0016.80,0008.66,0007.45
2023-08-24 16:06:00,SystemResetWarning,0834.0,4.97,000.00,028.3,025.5,000.0,036.3,029.6,33.8,0000.8,0015.92,0008.59,0007.43
2023-08-24 16:07:00,SystemResetWarning,0833.9,5.01,000.00,028.4,025.8,000.0,036.4,029.7,32.8,0000.9,0015.66,0008.51,0007.39
2023-08-24 16:08:00,SystemResetWarning,0833.9,5.00,000.00,028.5,026.2,000.0,036.4,029.7,33.3,0000.9,0015.61,0008.45,0007.38
2023-08-24 16:09:00,SystemResetWarning,0833.9,4.98,000.00,028.5,025.8,000.0,036.4,029.7,34.0,0001.3,0015.89,0008.42,0007.36
2023-08-24 16:10:00,SystemResetWarning,0833.9,5.00,000.00,028.5,024.5,000.0,036.3,029.4,34.6,0001.4,0015.95,0008.44,0007.35
2023-08-24 16:11:00,SystemResetWarning,0833.9,5.03,000.00,028.5,024.2,000.0,036.3,029.3,35.0,0001.6,0015.57,0008.42,0007.36
2023-08-24 16:12:00,SystemResetWarning,0833.9,4.97,000.00,028.5,024.4,000.0,036.3,029.4,34.5,0001.9,0015.70,0008.43,0007.35
2023-08-24 16:13:00,SystemResetWarning,0833.9,5.02,000.00,028.6,024.8,000.0,036.4,029.4,34.5,0002.0,0016.02,0008.37,0007.34
2023-08-24 16:14:00,SystemResetWarning,0833.9,4.99,000.00,028.6,025.3,000.0,036.4,029.5,33.5,0002.1,0016.07,0008.36,0007.33
2023-08-24 16:15:00,SystemResetWarning,0833.9,4.99,000.00,028.7,025.7,000.0,036.5,029.6,32.4,0001.6,0016.55,0008.35,0007.35
2023-08-24 16:16:00,SystemResetWarning,0833.9,5.00,000.00,028.7,026.0,000.0,036.6,029.7,32.2,0001.5,0016.03,0008.33,0007.39
2023-08-24 16:17:00,SystemResetWarning,0833.9,5.00,000.00,028.8,026.2,000.0,036.6,029.8,31.7,0001.9,0016.44,0008.36,0007.43
2023-08-24 16:18:00,SystemResetWarning,0833.9,5.00,000.00,028.8,025.2,000.0,036.5,029.6,32.4,0001.7,0016.26,0008.39,0007.45
2023-08-24 16:19:00,SystemResetWarning,0833.9,5.01,000.00,028.7,024.2,000.0,036.5,029.4,32.7,0001.7,0016.18,0008.41,0007.47
2023-08-24 16:20:00,SystemResetWarning,0833.9,5.01,000.00,028.7,024.3,000.0,036.5,029.3,32.7,0001.5,0015.65,0008.46,0007.51
2023-08-24 16:21:00,SystemResetWarning,0833.9,5.00,000.00,028.6,024.6,000.0,036.5,029.4,32.1,0001.5,0016.27,0008.45,0007.53
2023-08-24 16:22:00,SystemResetWarning,0833.9,5.00,000.00,028.6,025.0,000.0,036.6,029.5,32.3,0001.5,0016.57,0008.44,0007.56
2023-08-24 16:23:00,SystemResetWarning,0833.9,5.00,000.00,028.6,025.5,000.0,036.6,029.6,32.5,0001.4,0016.64,0008.50,0007.59
2023-08-24 16:24:00,SystemResetWarning,0833.9,5.00,000.00,028.6,025.9,000.0,036.7,029.7,32.8,0001.4,0016.10,0008.56,0007.62
2023-08-24 16:25:00,SystemResetWarning,0833.9,5.00,000.00,028.6,026.1,000.0,036.6,029.7,32.7,0001.4,0016.81,0008.59,0007.63
2023-08-24 16:26:00,SystemResetWarning,0833.9,4.98,000.00,028.6,025.1,000.0,036.5,029.5,33.3,0001.6,0016.51,0008.66,0007.66
2023-08-24 16:27:00,SystemResetWarning,0833.9,5.00,000.00,028.5,024.1,000.0,036.4,029.3,33.4,0001.4,0016.54,0008.67,0007.65
2023-08-24 16:28:00,SystemResetWarning,0833.9,5.01,000.00,028.4,024.2,000.0,036.4,029.3,32.2,0001.3,0016.38,0008.63,0007.65
2023-08-24 16:29:00,SystemResetWarning,0833.9,5.01,000.00,028.4,024.6,000.0,036.5,029.3,31.9,0001.4,0016.30,0008.67,0007.66
2023-08-24 16:30:00,SystemResetWarning,0833.9,5.00,000.00,028.3,025.0,000.0,036.5,029.4,31.5,0001.8,0016.12,0008.68,0007.66
2023-08-24 16:31:00,SystemResetWarning,0833.9,4.99,000.00,028.3,025.4,000.0,036.5,029.5,30.9,0001.6,0016.21,0008.64,0007.66
2023-08-24 16:32:00,SystemResetWarning,0833.9,5.00,000.00,028.4,025.8,000.0,036.5,029.6,31.9,0001.5,0016.53,0008.62,0007.65
2023-08-24 16:33:00,SystemResetWarning,0833.9,5.00,000.00,028.4,026.2,000.0,036.6,029.7,32.7,0001.4,0016.52,0008.63,0007.65
2023-08-24 16:34:00,SystemResetWarning,0833.8,4.99,000.00,028.4,025.8,000.0,036.5,029.6,31.3,0001.3,0016.84,0008.65,0007.68
2023-08-24 16:35:00,SystemResetWarning,0833.9,5.00,000.00,028.3,024.6,000.0,036.4,029.3,32.2,0001.2,0017.25,0008.69,0007.71
2023-08-24 16:36:00,SystemResetWarning,0833.9,5.01,000.00,028.3,024.2,000.0,036.3,029.2,31.8,0001.1,0017.20,0008.71,0007.73
2023-08-24 16:37:00,SystemResetWarning,0833.9,5.00,000.00,028.2,024.5,000.0,036.3,029.3,30.4,0001.1,0017.83,0008.69,0007.75
2023-08-24 16:38:00,SystemResetWarning,0833.9,5.00,000.00,028.2,024.9,000.0,036.3,029.3,30.2,0001.2,0017.46,0008.66,0007.74
2023-08-24 16:39:00,SystemResetWarning,0834.0,5.00,000.00,028.2,025.3,000.0,036.4,029.4,30.7,0001.1,0017.10,0008.67,0007.75
2023-08-24 16:40:00,SystemResetWarning,0833.9,5.00,000.00,028.2,025.7,000.0,036.4,029.5,30.3,0000.9,0017.43,0008.67,0007.76
2023-08-24 16:41:00,SystemResetWarning,0834.0,5.00,000.00,028.2,026.1,000.0,036.4,029.6,30.6,0000.8,0017.48,0008.67,0007.79
2023-08-24 16:42:00,SystemResetWarning,0833.9,4.98,000.00,028.2,025.8,000.0,036.4,029.6,29.7,0000.9,0018.57,0008.72,0007.80
2023-08-24 16:43:00,SystemResetWarning,0833.8,5.00,000.00,028.2,024.6,000.0,036.3,029.3,30.0,0000.9,0018.43,0008.74,0007.82
2023-08-24 16:44:00,SystemResetWarning,0833.8,5.01,000.00,028.1,024.2,000.0,036.2,029.2,31.1,0000.9,0017.90,0008.76,0007.84
2023-08-24 16:45:00,SystemResetWarning,0833.9,5.01,000.00,028.0,024.4,000.0,036.2,029.2,31.7,0000.9,0017.41,0008.70,0007.81
2023-08-24 16:46:00,SystemResetWarning,0833.8,5.00,000.00,028.0,024.8,000.0,036.2,029.3,31.2,0000.9,0017.91,0008.62,0007.77
2023-08-24 16:47:00,SystemResetWarning,0833.9,5.00,000.00,028.0,025.2,000.0,036.3,029.4,30.2,0000.7,0017.49,0008.60,0007.75
2023-08-24 16:48:00,SystemResetWarning,0833.8,5.00,000.00,028.0,025.6,000.0,036.3,029.5,30.1,0000.6,0016.75,0008.59,0007.74
2023-08-24 16:49:00,SystemResetWarning,0833.9,5.00,000.00,028.0,026.0,000.0,036.3,029.6,30.0,0000.7,0016.64,0008.59,0007.74
2023-08-24 16:50:00,SystemResetWarning,0833.8,4.99,000.00,028.1,025.7,000.0,036.2,029.5,30.9,0000.4,0016.53,0008.62,0007.75
2023-08-24 16:51:00,SystemResetWarning,0833.9,5.00,000.00,028.0,024.5,000.0,036.1,029.2,30.9,0000.7,0015.63,0008.59,0007.73
2023-08-24 16:52:00,SystemResetWarning,0833.8,5.01,000.00,027.9,024.1,000.0,036.1,029.1,30.7,0000.8,0015.40,0008.54,0007.70
2023-08-24 16:53:00,SystemResetWarning,0833.9,5.00,000.00,027.8,024.4,000.0,036.1,029.1,31.3,0000.7,0014.83,0008.47,0007.67
2023-08-24 16:54:00,SystemResetWarning,0833.8,5.00,000.00,027.8,024.7,000.0,036.1,029.2,32.1,0001.1,0014.09,0008.43,0007.64
2023-08-24 16:55:00,SystemResetWarning,0833.8,5.00,000.00,027.8,025.2,000.0,036.1,029.3,31.8,0001.7,0013.90,0008.41,0007.62
2023-08-24 16:56:00,SystemResetWarning,0833.8,5.00,000.00,027.8,025.6,000.0,036.1,029.4,31.3,0001.6,0014.03,0008.44,0007.61
2023-08-24 16:57:00,SystemResetWarning,0833.9,4.99,000.00,027.9,025.9,000.0,036.2,029.5,31.0,0001.9,0013.35,0008.48,0007.62
2023-08-24 16:58:00,SystemResetWarning,0833.8,4.98,000.00,027.9,025.7,000.0,036.1,029.4,31.6,0002.4,0013.91,0008.50,0007.62
2023-08-24 16:59:00,SystemResetWarning,0833.8,5.00,000.00,027.8,024.5,000.0,036.0,029.1,32.1,0002.3,0014.73,0008.48,0007.58
